Location: Presov
(49.0000°N, 21.2500°E)
Time: 00:36:09
(UTC+02:00)

Transit 2A Rocket - Pass Details

Date: 20 April 2021
Orbit: 594 x 908 km, 66.7° (Epoch: 05 May)

Event Time Altitude Azimuth Distance (km) Brightness Sun altitude
Rises 17:55:46 0° 265° (W) 2,886 9.9 15.1°
Reaches altitude 10° 17:58:44 10° 286° (WNW) 1,954 9.1 14.6°
Maximum altitude 18:01:38 17° 328° (NNW) 1,528 7.2 14.1°
Drops below altitude 10° 18:04:31 10° 10° (N) 1,938 7.1 13.6°
Sets 18:07:28 0° 31° (NNE) 2,852 7.7 13.2°
